Weather Service Report


551 
ASUS41 KAKQ 162310
RWRAKQ

REGIONAL WEATHER ROUNDUP
NATIONAL WEATHER SERVICE WAKEFIELD VA
700 PM EDT WED APR 16 2014

Note: "fair" indicates few or no clouds below 12,000 feet with no
significant weather and/or obstructions to visibility. * = Denotes
station may not report precipitation (e.g., rain,snow,etc.),
thunder or fog.

VAZ042-051-052>054-056-170000-
NORTHERN VIRGINIA
  
CITY           SKY/WX    TMP DP  RH WIND       PRES   REMARKS
WASH NATIONAL  PTCLDY    49  16  26 NE6       30.46R                  
DULLES         PTCLDY    46  16  30 N8        30.45R                  
FORT BELVOIR   CLEAR     48  14  25 VRB3      30.46R                  
QUANTICO       CLEAR     50  15  24 NE8       30.46R                  
FREDERICKSBRG* CLEAR     52  16  24 NE7       30.44S                  
STAFFORD*      CLEAR     49  17  27 CALM      30.48S                  
WARRENTON      CLEAR     48  26  41 NE6       30.44S                  
CULPEPER*      CLEAR     50  10  20 NE3       30.45S                  
MANASSAS*      CLEAR     48  18  29 NE8       30.45S                  
LEESBURG*      CLEAR     46  21  36 NE8       30.46S                  
WINCHESTER     CLEAR     45  16  31 NE5       30.43F                  
$$

VAZ048-049-060>072-079>083-170000-
CENTRAL AND SOUTH CENTRAL VIRGINIA...AND NORTH CENTRAL NORTH CAROLINA
  
CITY           SKY/WX    TMP DP  RH WIND       PRES   REMARKS
RICHMOND       CLEAR     50  16  25 NE8       30.43R                  
CHESTERFIELD*  CLEAR     50  16  25 NE8       30.43R                  
HANOVER        CLEAR     50  16  25 VRB3      30.44R                  
TAPPAHANNOCK*  CLEAR     49  14  25 NE5       30.44R                  
CHARLOTTSVILLE CLEAR     48  16  27 E8        30.42R                  
ORANGE*        CLEAR     46  18  31 N7        30.45R                  
LOUISA*        CLEAR     48  18  29 NE6       30.42R                  
FARMVILLE*     CLEAR     50  18  27 NE9       30.39S                  
SOUTH HILL*    CLEAR     52  21  30 CALM      30.45R                  
ROANOKE RAPIDS CLEAR     54  23  30 NE7       30.39S                  
RALEIGH        CLEAR     53  25  33 NE8       30.37R                  
$$

VAZ088>098-170000-
SOUTHEAST VIRGINIA
  
CITY           SKY/WX    TMP DP  RH WIND       PRES   REMARKS
NORFOLK        CLEAR     44  30  57 E10       30.43R                  
VIRGINIA BEACH PTCLDY    44  29  55 NE14      30.43R                  
NORFOLK NAVAL  PTCLDY    46  30  53 E14       30.45R                  
WEST POINT*    CLEAR     50  13  22 NE10      30.46R                  
NEWPORT NEWS   CLEAR     49  26  41 NE9       30.44R                  
LANGLEY AFB    CLEAR     46  27  47 NE10      30.45R                  
FORT EUSTIS    CLEAR     48  26  42 NE8       30.42R                  
WILLIAMSBURG*  CLEAR     52  28  40 NE5       30.44R                  
FRANKLIN*      CLEAR     48  27  43 E8        30.42R                  
WAKEFIELD      CLEAR     51  19  28 VRB3      30.42R                  
$$

VAZ020-022-025-037-045-170000-
WESTERN AND SOUTHWEST VIRGINIA
  
CITY           SKY/WX    TMP DP  RH WIND       PRES   REMARKS
STAUNTON*      CLEAR     47  16  28 N3        30.40S                  
HOT SPRINGS VA SUNNY     39  19  45 E6        30.35S                  
LYNCHBURG      CLEAR     53  19  26 E8        30.40R                  
DANVILLE       CLEAR     53  23  31 E8        30.38S                  
MARTINSVILLE   SUNNY     52  24  34 E7        30.39R                  
ROANOKE        SUNNY     50  22  33 E9        30.38R                  
BLACKSBURG     SUNNY     48  25  40 E9        30.35S                  
DUBLIN*        SUNNY     49  21  32 SE9       30.33R                  
MARION*        SUNNY     51  20  30 SE8       30.30S                  
HILLSVILLE*    SUNNY     48   7  18 S7        30.33R                  
RICHLANDS*     CLEAR     55  18  23 SE6       30.26S                  
WISE*          SUNNY     54  18  24 S5        30.25S                  
ABINGDON*      SUNNY     58  20  22 E12       30.24S                  
$$

MDZ021>025-VAZ099-100-170000-
SOUTHERN MARYLAND AND THE DELMARVA PENINSULA
  
CITY           SKY/WX    TMP DP  RH WIND       PRES   REMARKS
PATUXENT RIVER PTCLDY    46  21  37 N10       30.45R                  
BAY BRIDGE APT CLEAR     45  21  39 N8        30.46R                  
LEONARDTOWN    NOT AVBL                                               
DOVER          CLEAR     46  21  37 N8        30.41R                  
GEORGETOWN     CLEAR     47  21  35 N7        30.44R                  
EASTON         CLEAR     46  25  42 N7        30.49R                  
CAMBRIDGE      CLEAR     48  23  37 N7        30.44R                  
SALISBURY      CLEAR     48  22  35 NE10      30.44R                  
OCEAN CITY     CLEAR     43  26  51 E9        30.45R                  
WALLOPS ISLAND CLEAR     47  23  38 NE14      30.43R                  
ACCOMACK*      NOT AVBL                                               
$$

NCZ012>017-030>032-170000-
EASTERN NORTH CAROLINA
  
CITY           SKY/WX    TMP DP  RH WIND       PRES   REMARKS
ELIZABETH CITY CLEAR     46  29  51 NE17      30.42R                  
AHOSKIE*       CLEAR     50  24  36 N7        30.41R                  
EDENTON*       CLEAR     48  29  49 NE8       30.42R                  
CURRITUCK*     CLEAR     45  28  50 NE10G16   30.43R                  
KILL DEVIL HLS CLEAR     42  28  57 NE13G21   30.40S                  
MANTEO         CLEAR     43  28  56 NE23G31   30.42R                  
CAPE HATTERAS  CLOUDY    44  35  70 NE10G20   30.39R                  
GOLDSBORO      CLEAR     53  28  38 NE8       30.36R                  
WASHINGTON     CLEAR     53  26  35 E10G16    30.40R                  
GREENVILLE     CLEAR     52  27  37 NE8       30.39R                  
NEW BERN       CLEAR     51  29  42 NE15      30.39R                  
WILMINGTON     CLEAR     54  32  43 E10G18    30.35R                  
$$

VAZ048-170000-
ELSEWHERE
  
CITY           SKY/WX    TMP DP  RH WIND       PRES   REMARKS
HARRISBURG PA  PTCLDY    46  14  27 VRB5      30.45R                  
BALTIMORE      PTCLDY    46  17  31 N8        30.45R                  
ANNAPOLIS      CLEAR     47  21  35 N10       30.46R                  
ANDREWS AFB    CLEAR     46  16  30 NE8       30.45R                  
WILMINGTON DE  CLEAR     47  19  33 N10       30.46R                  
PHILADELPHIA   PTCLDY    47  16  29 N10G20    30.46R                  
WILDWOOD NJ*   CLEAR     43  27  52 E7        30.46R                  
ATLANTIC CITY  CLEAR     44  27  51 E8        30.44R                  
HENDERSON NC   CLEAR     51  20  29 N8        30.38S                  
GREENSBORO     CLEAR     52  21  29 NE10      30.35R                  
ROCKY MOUNT      N/A    N/A N/A N/A MISG      30.39R                  
FAYETTEVILLE   CLEAR     54  26  34 NE8       30.36R                  
CHARLOTTE      SUNNY     55  25  31 E12G21    30.33R                  
$$

VAZ100-170000-
MARINE
  
STATION/POSITION TIME  TEMP    WIND        PRES    WAVE   SWELL
                       AIR SEA DIR/SP/G            HT/PER HT/PER
                 (UTC) (F)     (DEG/KT/KT) (MB)    (FT/S) (FT/S)
44066 TX TWR #4  2300   41 45   10/ 16/ 19 1030.1R   6/11   3/11
CAPE MAY NJ      2300   42 54  120/ 10/ 14 1030.5R
LEWES DE         2300   44 52  120/  8/ 11 1030.1R
15NM E FENWICK I 2300   42 45              1030.9R   4/11
OCEAN-CITY-INLET 2300   43 48   80/  6/ 10 1030.6R
WACHAPREAGUE VA  2300   44 57   70/ 15/ 18 1030.2R
THOMAS POINT MD  2300   45 52   10/ 13/ 14 1031.9R
GOOSES REEF MD   2300   46      40/ 12/ 17 1032.4R
COVE POINT MD    2300   45      10/ 12/ 16 1031.1R
SOLOMONS ISLAND  2300      54                N/A
BISHOPS HEAD MD  2300   47 54  360/  8/ 11 1030.5R
PINEY POINT MD   2300           50/  8/ 10   N/A
POTOMAC MD       2300   46     360/ 12/ 16 1030.3R
CAMBRIDGE MD     2300   47 56   10/ 11/ 13 1030.6R
LEWISETTA VA     2300   46 52   20/  8/ 12 1031.0R
RAPPAHANNOCK LGT 2300          350/ 15/ 17 1030.8R
STINGRAY PT      2300   46      10/ 14/ 17 1030.5R
YORK RVR RNG VA  2300   46      30/ 13/ 15 1029.9R
YORKTOWN VA      2300   46 56   30/ 12/ 14 1030.5R
JAMESTOWN VA     2300   50      90/  6/ 12   N/A
DOMINION TERM VA 2300   47      40/  6/ 10 1030.6R
KIPTOPEKE VA     2300      56   90/  7/ 11   N/A
CHES BAY BRIDGE  2300   43 52   50/ 14/ 15 1030.5R
CAPE HENRY VA    2300           60/ 14/ 16   N/A
CHESAPEAKE LGHT  2200   41      60/ 18/ 20 1030.4R
WILLOUBY STN VA  2300   45      20/ 17/ 20 1029.7R
S CRANEY ISL VA  2300          360/ 12/ 22 1030.5R
CAPE HENRY BUOY  2300      46                N/A     5/ 8   2/13
1ST LANDING BUOY 2300      46                N/A     5/ 8   3/ 8
64NM E OF VA BCH 2300   44 65   20/ 23/ 29 1028.9R  10/ 9   5/ 9
DUCK PIER NC     2300   43 48   40/ 20/ 22 1029.1R
44100 DUCK FRF   2300      47                N/A     8/ 8   2/11
44056 DUCK FRF   2300      47                N/A     7/ 8   2/11
OREGON INLET NC  2300   42 54   20/ 19/ 22 1029.6R
HATTERAS NC      2300   45 59   30/ 15/ 23 1029.1R
CAPE LOOKOUT NC  2300   47      40/ 25/ 32 1028.6R
FRYING PAN SHLS  2300   53 65   70/ 23/ 27 1026.4R   8/ 8
$$

Return to Home page


Western Regional Climate Center, wrcc@dri.edu